Time,TemperatureF,DewpointF,PressureIn,WindDirection,WindDirectionDegrees,WindSpeedMPH,WindSpeedGustMPH,Humidity,HourlyPrecipIn,Conditions,Clouds,dailyrainin,SoftwareType,DateUTC
2017-11-24 00:01:00,40.7,32.7,30.07,West,267,0.0,1.2,73,0.00,CLR,FEW,0.00,WeatherDisplay:10.37,2017-11-24 05:01:00,
2017-11-24 00:06:00,40.6,32.6,30.07,West,267,0.6,1.2,73,0.00,CLR,FEW,0.00,WeatherDisplay:10.37,2017-11-24 05:06:00,
2017-11-24 00:11:00,40.4,32.4,30.07,West,267,0.7,1.2,73,0.00,CLR,FEW,0.00,WeatherDisplay:10.37,2017-11-24 05:11:00,
2017-11-24 00:16:00,40.2,32.6,30.08,West,267,0.6,1.2,74,0.00,CLR,FEW,0.00,WeatherDisplay:10.37,2017-11-24 05:16:00,
2017-11-24 00:21:00,39.9,32.6,30.07,West,267,0.7,1.2,75,0.00,CLR,FEW,0.00,WeatherDisplay:10.37,2017-11-24 05:21:00,
2017-11-24 00:26:00,39.6,32.7,30.08,West,267,1.3,2.3,76,0.00,CLR,FEW,0.00,WeatherDisplay:10.37,2017-11-24 05:26:00,
2017-11-24 00:31:00,39.6,32.7,30.07,West,267,1.3,2.3,76,0.00,CLR,FEW,0.00,WeatherDisplay:10.37,2017-11-24 05:31:00,
2017-11-24 00:36:00,39.7,32.8,30.08,West,267,1.4,2.3,76,0.00,CLR,FEW,0.00,WeatherDisplay:10.37,2017-11-24 05:36:00,
2017-11-24 00:41:00,39.8,32.8,30.07,West,267,0.5,1.2,76,0.00,CLR,FEW,0.00,WeatherDisplay:10.37,2017-11-24 05:41:00,
2017-11-24 00:46:00,39.8,32.8,30.07,West,267,0.0,1.2,76,0.00,CLR,FEW,0.00,WeatherDisplay:10.37,2017-11-24 05:46:00,
2017-11-24 00:56:00,39.5,32.6,30.08,West,267,0.0,0.0,76,0.00,CLR,FEW,0.00,WeatherDisplay:10.37,2017-11-24 05:56:00,
2017-11-24 01:01:00,39.2,32.6,30.08,West,267,0.3,1.2,77,0.00,CLR,FEW,0.00,WeatherDisplay:10.37,2017-11-24 06:01:00,
2017-11-24 01:06:00,38.8,32.2,30.08,West,267,0.0,0.0,77,0.00,CLR,FEW,0.00,WeatherDisplay:10.37,2017-11-24 06:06:00,
2017-11-24 01:07:00,38.8,32.2,30.08,West,267,0.0,0.0,77,0.00,CLR,FEW,0.00,WeatherDisplay:10.37,2017-11-24 06:07:00,
2017-11-24 01:12:00,38.3,32.0,30.08,West,267,0.6,1.2,78,0.00,CLR,FEW,0.00,WeatherDisplay:10.37,2017-11-24 06:12:00,
2017-11-24 01:17:00,37.8,31.9,30.07,West,267,0.0,0.0,79,0.00,CLR,FEW,0.00,WeatherDisplay:10.37,2017-11-24 06:17:00,
2017-11-24 01:22:00,37.4,31.8,30.07,West,267,0.0,0.0,80,0.00,CLR,FEW,0.00,WeatherDisplay:10.37,2017-11-24 06:22:00,
2017-11-24 01:27:00,37.1,31.5,30.07,West,267,0.0,0.0,80,0.00,CLR,FEW,0.00,WeatherDisplay:10.37,2017-11-24 06:27:00,
2017-11-24 01:32:00,36.9,31.6,30.07,West,267,0.6,1.2,81,0.00,CLR,FEW,0.00,WeatherDisplay:10.37,2017-11-24 06:32:00,
2017-11-24 01:37:00,36.8,31.8,30.07,West,267,0.9,1.2,82,0.00,CLR,FEW,0.00,WeatherDisplay:10.37,2017-11-24 06:37:00,
2017-11-24 01:42:00,36.7,31.7,30.07,West,267,0.0,0.0,82,0.00,CLR,FEW,0.00,WeatherDisplay:10.37,2017-11-24 06:42:00,
2017-11-24 01:52:00,36.5,31.8,30.08,West,267,0.3,1.2,83,0.00,CLR,FEW,0.00,WeatherDisplay:10.37,2017-11-24 06:52:00,
2017-11-24 02:02:00,36.5,32.1,30.08,West,267,0.8,1.2,84,0.00,CLR,FEW,0.00,WeatherDisplay:10.37,2017-11-24 07:02:00,
2017-11-24 02:07:00,36.6,32.5,30.08,West,267,0.8,1.2,85,0.00,CLR,FEW,0.00,WeatherDisplay:10.37,2017-11-24 07:07:00,
2017-11-24 02:17:00,37.0,32.3,30.08,West,267,1.2,2.3,83,0.00,CLR,FEW,0.00,WeatherDisplay:10.37,2017-11-24 07:17:00,
2017-11-24 02:27:00,37.4,32.7,30.08,West,267,1.6,2.3,83,0.00,CLR,FEW,0.00,WeatherDisplay:10.37,2017-11-24 07:27:00,
2017-11-24 02:32:00,37.5,32.5,30.08,West,267,1.1,2.3,82,0.00,CLR,FEW,0.00,WeatherDisplay:10.37,2017-11-24 07:32:00,
2017-11-24 02:37:00,37.5,32.5,30.08,West,267,0.8,1.2,82,0.00,CLR,FEW,0.00,WeatherDisplay:10.37,2017-11-24 07:37:00,
2017-11-24 02:42:00,37.4,32.4,30.08,West,267,0.0,0.0,82,0.00,CLR,FEW,0.00,WeatherDisplay:10.37,2017-11-24 07:42:00,
2017-11-24 02:47:00,37.3,32.3,30.08,West,267,0.9,1.2,82,0.00,CLR,FEW,0.00,WeatherDisplay:10.37,2017-11-24 07:47:00,
2017-11-24 03:02:00,37.0,32.0,30.08,West,267,0.0,0.0,82,0.00,CLR,FEW,0.00,WeatherDisplay:10.37,2017-11-24 08:02:00,
2017-11-24 03:07:00,36.9,31.9,30.08,West,267,0.9,2.3,82,0.00,CLR,FEW,0.00,WeatherDisplay:10.37,2017-11-24 08:07:00,
2017-11-24 03:12:00,36.6,31.6,30.08,West,267,0.0,0.0,82,0.00,CLR,FEW,0.00,WeatherDisplay:10.37,2017-11-24 08:12:00,
2017-11-24 03:22:00,36.2,31.5,30.08,West,267,0.8,1.2,83,0.00,CLR,FEW,0.00,WeatherDisplay:10.37,2017-11-24 08:22:00,
2017-11-24 03:27:00,36.0,31.3,30.08,West,267,0.0,0.0,83,0.00,CLR,FEW,0.00,WeatherDisplay:10.37,2017-11-24 08:27:00,
2017-11-24 03:32:00,35.9,31.5,30.08,West,267,0.0,0.0,84,0.00,CLR,FEW,0.00,WeatherDisplay:10.37,2017-11-24 08:32:00,
2017-11-24 03:42:00,35.6,31.2,30.08,West,267,0.0,0.0,84,0.00,CLR,FEW,0.00,WeatherDisplay:10.37,2017-11-24 08:42:00,
2017-11-24 03:47:00,35.5,31.4,30.08,West,267,0.7,1.2,85,0.00,CLR,FEW,0.00,WeatherDisplay:10.37,2017-11-24 08:47:00,
2017-11-24 03:52:00,35.5,31.4,30.08,West,267,0.7,1.2,85,0.00,CLR,FEW,0.00,WeatherDisplay:10.37,2017-11-24 08:52:00,
2017-11-24 04:07:00,35.2,31.1,30.08,West,267,0.7,1.2,85,0.00,CLR,FEW,0.00,WeatherDisplay:10.37,2017-11-24 09:07:00,
2017-11-24 04:12:00,35.3,31.2,30.08,West,267,0.0,1.2,85,0.00,CLR,FEW,0.00,WeatherDisplay:10.37,2017-11-24 09:12:00,
2017-11-24 04:17:00,35.2,31.1,30.08,West,267,0.7,1.2,85,0.00,CLR,FEW,0.00,WeatherDisplay:10.37,2017-11-24 09:17:00,
2017-11-24 04:22:00,35.2,31.1,30.08,West,267,0.5,1.2,85,0.00,CLR,FEW,0.00,WeatherDisplay:10.37,2017-11-24 09:22:00,
2017-11-24 04:27:00,35.1,31.0,30.08,West,267,0.8,1.2,85,0.00,CLR,FEW,0.00,WeatherDisplay:10.37,2017-11-24 09:27:00,
2017-11-24 04:32:00,35.0,31.2,30.08,West,267,0.1,1.2,86,0.00,CLR,FEW,0.00,WeatherDisplay:10.37,2017-11-24 09:32:00,
2017-11-24 04:37:00,34.9,31.1,30.08,West,267,0.0,0.0,86,0.00,CLR,FEW,0.00,WeatherDisplay:10.37,2017-11-24 09:37:00,
2017-11-24 04:42:00,34.9,31.1,30.08,West,267,1.0,1.2,86,0.00,CLR,FEW,0.00,WeatherDisplay:10.37,2017-11-24 09:42:00,
2017-11-24 04:47:00,34.9,31.1,30.08,West,267,0.9,1.2,86,0.00,CLR,FEW,0.00,WeatherDisplay:10.37,2017-11-24 09:47:00,
2017-11-24 04:52:00,34.9,31.4,30.08,West,267,0.3,1.2,87,0.00,CLR,FEW,0.00,WeatherDisplay:10.37,2017-11-24 09:52:00,
2017-11-24 04:53:00,35.0,31.5,30.08,West,267,0.1,1.2,87,0.00,CLR,FEW,0.00,WeatherDisplay:10.37,2017-11-24 09:53:00,
2017-11-24 04:58:00,35.0,31.5,30.08,West,267,0.0,0.0,87,0.00,CLR,FEW,0.00,WeatherDisplay:10.37,2017-11-24 09:58:00,
2017-11-24 05:03:00,35.0,31.5,30.08,West,267,0.0,0.0,87,0.00,CLR,FEW,0.00,WeatherDisplay:10.37,2017-11-24 10:03:00,
2017-11-24 05:08:00,34.8,31.3,30.08,West,267,0.8,1.2,87,0.00,CLR,FEW,0.00,WeatherDisplay:10.37,2017-11-24 10:08:00,
2017-11-24 05:13:00,34.9,31.7,30.08,West,267,0.0,1.2,88,0.00,,FEW,0.00,WeatherDisplay:10.37,2017-11-24 10:13:00,
2017-11-24 05:18:00,34.9,31.7,30.07,West,267,0.0,0.0,88,0.00,,FEW,0.00,WeatherDisplay:10.37,2017-11-24 10:18:00,
2017-11-24 05:23:00,34.9,31.7,30.07,West,267,0.0,0.0,88,0.00,,FEW,0.00,WeatherDisplay:10.37,2017-11-24 10:23:00,
2017-11-24 05:28:00,34.8,31.6,30.07,West,267,0.0,0.0,88,0.00,,FEW,0.00,WeatherDisplay:10.37,2017-11-24 10:28:00,
2017-11-24 05:33:00,34.6,31.4,30.07,West,267,0.0,0.0,88,0.00,,FEW,0.00,WeatherDisplay:10.37,2017-11-24 10:33:00,
2017-11-24 05:38:00,34.3,31.1,30.07,West,267,0.0,0.0,88,0.00,,FEW,0.00,WeatherDisplay:10.37,2017-11-24 10:38:00,
2017-11-24 05:43:00,34.1,30.9,30.07,West,267,0.0,0.0,88,0.00,SCT,FEW,0.00,WeatherDisplay:10.37,2017-11-24 10:43:00,
2017-11-24 05:48:00,33.8,30.6,30.07,West,267,0.0,0.0,88,0.00,SCT,FEW,0.00,WeatherDisplay:10.37,2017-11-24 10:48:00,
2017-11-24 05:53:00,33.6,30.4,30.07,West,267,0.0,0.0,88,0.00,SCT,FEW,0.00,WeatherDisplay:10.37,2017-11-24 10:53:00,
2017-11-24 05:58:00,33.4,30.5,30.07,West,267,0.2,1.0,89,0.00,SCT,FEW,0.00,WeatherDisplay:10.37,2017-11-24 10:58:00,
2017-11-24 06:03:00,33.4,30.5,30.07,West,267,0.9,1.2,89,0.00,FEW,,0.00,WeatherDisplay:10.37,2017-11-24 11:03:00,
2017-11-24 06:08:00,33.8,31.5,30.07,West,267,0.5,1.2,91,0.00,FEW,,0.00,WeatherDisplay:10.37,2017-11-24 11:08:00,
2017-11-24 06:13:00,34.0,31.4,30.07,West,267,0.5,1.0,90,0.00,FEW,,0.00,WeatherDisplay:10.37,2017-11-24 11:13:00,
2017-11-24 06:18:00,34.2,31.6,30.07,West,267,1.2,1.2,90,0.00,FEW,,0.00,WeatherDisplay:10.37,2017-11-24 11:18:00,
2017-11-24 06:23:00,34.5,32.1,30.07,West,267,1.4,2.3,91,0.00,FEW,,0.00,WeatherDisplay:10.37,2017-11-24 11:23:00,
2017-11-24 06:28:00,34.9,32.3,30.07,West,267,1.8,2.3,90,0.00,FEW,,0.00,WeatherDisplay:10.37,2017-11-24 11:28:00,
2017-11-24 06:34:00,35.3,32.7,30.07,West,267,2.1,3.5,90,0.00,FEW,,0.00,WeatherDisplay:10.37,2017-11-24 11:34:00,
2017-11-24 06:39:00,35.9,33.3,30.06,West,267,1.5,2.3,90,0.00,FEW,,0.00,WeatherDisplay:10.37,2017-11-24 11:39:00,
2017-11-24 06:44:00,36.3,33.6,30.06,West,267,1.8,2.3,90,0.00,FEW,,0.00,WeatherDisplay:10.37,2017-11-24 11:44:00,
2017-11-24 06:49:00,36.5,33.6,30.06,West,267,1.8,2.3,89,0.00,FEW,,0.00,WeatherDisplay:10.37,2017-11-24 11:49:00,
2017-11-24 06:54:00,36.5,33.3,30.06,West,267,1.8,2.3,88,0.00,FEW,,0.00,WeatherDisplay:10.37,2017-11-24 11:54:00,
2017-11-24 06:59:00,36.4,32.9,30.06,SSE,154,2.0,2.3,87,0.00,FEW,,0.00,WeatherDisplay:10.37,2017-11-24 11:59:00,
2017-11-24 07:04:00,36.2,32.7,30.06,SSE,154,1.9,2.3,87,0.00,CLR,FEW,0.00,WeatherDisplay:10.37,2017-11-24 12:04:00,
2017-11-24 07:09:00,36.1,32.6,30.06,SSE,154,1.6,2.3,87,0.00,CLR,FEW,0.00,WeatherDisplay:10.37,2017-11-24 12:09:00,
2017-11-24 07:14:00,36.0,32.8,30.06,SSE,154,1.7,2.3,88,0.00,CLR,FEW,0.00,WeatherDisplay:10.37,2017-11-24 12:14:00,
2017-11-24 07:19:00,36.0,32.8,30.06,SSE,154,0.7,1.2,88,0.00,CLR,FEW,0.00,WeatherDisplay:10.37,2017-11-24 12:19:00,
2017-11-24 07:24:00,36.2,33.0,30.06,SSE,154,0.6,1.2,88,0.00,CLR,FEW,0.00,WeatherDisplay:10.37,2017-11-24 12:24:00,
2017-11-24 07:29:00,36.3,32.8,30.06,SSE,154,0.0,0.0,87,0.00,CLR,FEW,0.00,WeatherDisplay:10.37,2017-11-24 12:29:00,
2017-11-24 07:34:00,36.0,32.2,30.06,SSE,154,0.3,1.2,86,0.00,CLR,FEW,0.00,WeatherDisplay:10.37,2017-11-24 12:34:00,
2017-11-24 07:39:00,35.5,31.7,30.07,SSE,154,1.7,2.3,86,0.00,CLR,FEW,0.00,WeatherDisplay:10.37,2017-11-24 12:39:00,
2017-11-24 07:44:00,35.3,32.1,30.06,SSE,154,1.0,2.3,88,0.00,CLR,FEW,0.00,WeatherDisplay:10.37,2017-11-24 12:44:00,
2017-11-24 07:49:00,35.3,32.1,30.07,SSE,154,0.0,0.0,88,0.00,CLR,FEW,0.00,WeatherDisplay:10.37,2017-11-24 12:49:00,
2017-11-24 07:54:00,35.3,32.1,30.07,SSE,154,0.5,1.2,88,0.00,CLR,FEW,0.00,WeatherDisplay:10.37,2017-11-24 12:54:00,
2017-11-24 07:59:00,34.8,31.6,30.07,SSE,154,0.0,0.0,88,0.00,CLR,FEW,0.00,WeatherDisplay:10.37,2017-11-24 12:59:00,
2017-11-24 08:04:00,34.3,31.1,30.07,SSE,154,1.2,2.3,88,0.00,CLR,FEW,0.00,WeatherDisplay:10.37,2017-11-24 13:04:00,
2017-11-24 08:09:00,34.3,31.4,30.07,SSE,154,1.0,2.3,89,0.00,CLR,FEW,0.00,WeatherDisplay:10.37,2017-11-24 13:09:00,
2017-11-24 08:14:00,34.7,32.1,30.08,SSE,154,0.7,1.2,90,0.00,CLR,FEW,0.00,WeatherDisplay:10.37,2017-11-24 13:14:00,
2017-11-24 08:19:00,34.9,32.3,30.08,SSE,154,1.1,2.0,90,0.00,CLR,FEW,0.00,WeatherDisplay:10.37,2017-11-24 13:19:00,
2017-11-24 08:24:00,35.1,32.5,30.08,SSE,154,1.0,1.2,90,0.00,CLR,FEW,0.00,WeatherDisplay:10.37,2017-11-24 13:24:00,
2017-11-24 08:29:00,35.4,32.8,30.08,SSE,154,0.8,1.2,90,0.00,CLR,FEW,0.00,WeatherDisplay:10.37,2017-11-24 13:29:00,
2017-11-24 08:34:00,35.6,32.7,30.08,SSE,154,0.0,0.0,89,0.00,CLR,FEW,0.00,WeatherDisplay:10.37,2017-11-24 13:34:00,
2017-11-24 08:35:00,35.6,32.7,30.08,SSE,154,0.0,0.0,89,0.00,CLR,FEW,0.00,WeatherDisplay:10.37,2017-11-24 13:35:00,
2017-11-24 08:40:00,35.8,32.9,30.08,SSE,154,0.0,0.0,89,0.00,CLR,FEW,0.00,WeatherDisplay:10.37,2017-11-24 13:40:00,
2017-11-24 08:45:00,35.9,33.0,30.08,SSE,154,0.0,0.0,89,0.00,CLR,FEW,0.00,WeatherDisplay:10.37,2017-11-24 13:45:00,
2017-11-24 08:50:00,36.0,33.1,30.08,SSE,154,0.0,0.0,89,0.00,CLR,FEW,0.00,WeatherDisplay:10.37,2017-11-24 13:50:00,
2017-11-24 08:51:00,36.0,33.1,30.08,SSE,154,0.0,0.0,89,0.00,CLR,FEW,0.00,WeatherDisplay:10.37,2017-11-24 13:51:00,
2017-11-24 08:56:00,36.1,33.2,30.08,SSE,154,0.0,0.0,89,0.00,CLR,FEW,0.00,WeatherDisplay:10.37,2017-11-24 13:56:00,
2017-11-24 09:01:00,36.1,33.2,30.08,SSE,154,0.0,0.0,89,0.00,CLR,FEW,0.00,WeatherDisplay:10.37,2017-11-24 14:01:00,
2017-11-24 09:06:00,36.1,33.2,30.08,SSE,154,0.0,0.0,89,0.00,CLR,FEW,0.00,WeatherDisplay:10.37,2017-11-24 14:06:00,
2017-11-24 09:11:00,36.4,33.5,30.08,SSE,154,0.0,0.0,89,0.00,CLR,FEW,0.00,WeatherDisplay:10.37,2017-11-24 14:11:00,
2017-11-24 09:16:00,36.5,33.6,30.07,SSE,154,0.0,0.0,89,0.00,CLR,FEW,0.00,WeatherDisplay:10.37,2017-11-24 14:16:00,
2017-11-24 09:21:00,36.6,33.7,30.08,SSE,154,0.0,0.0,89,0.00,CLR,FEW,0.00,WeatherDisplay:10.37,2017-11-24 14:21:00,
2017-11-24 09:26:00,36.8,33.9,30.08,SSE,154,0.0,0.0,89,0.00,CLR,FEW,0.00,WeatherDisplay:10.37,2017-11-24 14:26:00,
2017-11-24 09:31:00,36.9,33.7,30.08,SSE,154,0.6,1.2,88,0.00,CLR,FEW,0.00,WeatherDisplay:10.37,2017-11-24 14:31:00,
2017-11-24 09:36:00,36.9,33.4,30.08,SSE,154,0.0,0.0,87,0.00,CLR,FEW,0.00,WeatherDisplay:10.37,2017-11-24 14:36:00,
2017-11-24 09:41:00,37.1,33.6,30.08,SSE,154,0.2,1.2,87,0.00,CLR,FEW,0.00,WeatherDisplay:10.37,2017-11-24 14:41:00,
2017-11-24 09:46:00,37.5,34.0,30.08,SSE,154,0.1,1.2,87,0.00,CLR,FEW,0.00,WeatherDisplay:10.37,2017-11-24 14:46:00,
2017-11-24 09:51:00,38.0,34.5,30.08,SSE,154,0.4,1.2,87,0.00,CLR,FEW,0.00,WeatherDisplay:10.37,2017-11-24 14:51:00,
2017-11-24 09:56:00,38.7,34.6,30.08,SSE,154,0.9,1.2,85,0.00,CLR,FEW,0.00,WeatherDisplay:10.37,2017-11-24 14:56:00,
2017-11-24 10:01:00,39.4,35.3,30.08,SSE,154,0.5,1.2,85,0.00,CLR,FEW,0.00,WeatherDisplay:10.37,2017-11-24 15:01:00,
2017-11-24 10:06:00,40.2,35.8,30.08,SSE,154,0.1,1.2,84,0.00,CLR,FEW,0.00,WeatherDisplay:10.37,2017-11-24 15:06:00,
2017-11-24 10:11:00,40.9,36.1,30.08,SSE,154,0.3,1.2,83,0.00,CLR,FEW,0.00,WeatherDisplay:10.37,2017-11-24 15:11:00,
2017-11-24 10:16:00,41.7,36.3,30.08,SSE,154,1.2,2.3,81,0.00,CLR,FEW,0.00,WeatherDisplay:10.37,2017-11-24 15:16:00,
2017-11-24 10:21:00,42.2,35.8,30.08,SSE,155,1.3,2.3,78,0.00,CLR,FEW,0.00,WeatherDisplay:10.37,2017-11-24 15:21:00,
2017-11-24 10:26:00,42.7,36.3,30.08,SSE,157,0.9,2.3,78,0.00,CLR,FEW,0.00,WeatherDisplay:10.37,2017-11-24 15:26:00,
2017-11-24 10:31:00,43.4,36.7,30.08,SSE,157,0.6,2.3,77,0.00,CLR,FEW,0.00,WeatherDisplay:10.37,2017-11-24 15:31:00,
2017-11-24 10:36:00,44.1,36.7,30.08,WNW,288,1.4,3.5,75,0.00,CLR,FEW,0.00,WeatherDisplay:10.37,2017-11-24 15:36:00,
2017-11-24 10:41:00,44.5,37.1,30.08,NW,319,0.9,2.3,75,0.00,CLR,FEW,0.00,WeatherDisplay:10.37,2017-11-24 15:41:00,
2017-11-24 10:46:00,44.7,36.2,30.07,NNW,337,1.1,3.5,72,0.00,CLR,FEW,0.00,WeatherDisplay:10.37,2017-11-24 15:46:00,
2017-11-24 10:51:00,44.9,36.8,30.07,NNW,337,1.9,2.3,73,0.00,CLR,FEW,0.00,WeatherDisplay:10.37,2017-11-24 15:51:00,
2017-11-24 10:56:00,45.4,36.9,30.07,NNW,337,1.9,3.5,72,0.00,CLR,FEW,0.00,WeatherDisplay:10.37,2017-11-24 15:56:00,
2017-11-24 11:01:00,46.0,37.5,30.07,West,262,1.8,3.0,72,0.00,CLR,FEW,0.00,WeatherDisplay:10.37,2017-11-24 16:01:00,
2017-11-24 11:06:00,46.3,37.0,30.07,West,264,0.9,2.3,70,0.00,CLR,FEW,0.00,WeatherDisplay:10.37,2017-11-24 16:06:00,
2017-11-24 11:11:00,46.8,37.5,30.06,West,269,0.4,2.3,70,0.00,CLR,FEW,0.00,WeatherDisplay:10.37,2017-11-24 16:11:00,
2017-11-24 11:16:00,47.4,37.4,30.06,West,271,1.1,2.3,68,0.00,CLR,FEW,0.00,WeatherDisplay:10.37,2017-11-24 16:16:00,
2017-11-24 11:21:00,47.6,37.6,30.06,West,273,1.5,2.3,68,0.00,CLR,FEW,0.00,WeatherDisplay:10.37,2017-11-24 16:21:00,
2017-11-24 11:26:00,48.1,38.4,30.05,West,273,0.7,2.3,69,0.00,CLR,FEW,0.00,WeatherDisplay:10.37,2017-11-24 16:26:00,
2017-11-24 11:31:00,48.5,38.0,30.05,West,274,1.2,4.0,67,0.00,CLR,FEW,0.00,WeatherDisplay:10.37,2017-11-24 16:31:00,
2017-11-24 11:36:00,48.8,38.7,30.05,WNW,287,1.2,3.5,68,0.00,CLR,FEW,0.00,WeatherDisplay:10.37,2017-11-24 16:36:00,
2017-11-24 11:41:00,49.2,37.9,30.05,West,276,2.1,3.5,65,0.00,CLR,FEW,0.00,WeatherDisplay:10.37,2017-11-24 16:41:00,
2017-11-24 11:46:00,49.8,38.9,30.04,NW,325,2.5,3.5,66,0.00,CLR,FEW,0.00,WeatherDisplay:10.37,2017-11-24 16:46:00,
2017-11-24 11:51:00,50.5,38.8,30.04,NW,324,1.1,2.3,64,0.00,CLR,FEW,0.00,WeatherDisplay:10.37,2017-11-24 16:51:00,
2017-11-24 11:56:00,51.1,38.9,30.03,WNW,297,1.7,3.5,63,0.00,CLR,FEW,0.00,WeatherDisplay:10.37,2017-11-24 16:56:00,
2017-11-24 12:01:00,51.6,39.0,30.03,WNW,297,1.5,3.0,62,0.00,CLR,FEW,0.00,WeatherDisplay:10.37,2017-11-24 17:01:00,
2017-11-24 12:06:00,51.7,38.7,30.03,NNW,348,1.6,3.5,61,0.00,CLR,FEW,0.00,WeatherDisplay:10.37,2017-11-24 17:06:00,
2017-11-24 12:11:00,52.2,39.1,30.02,NNW,348,1.6,2.3,61,0.00,CLR,FEW,0.00,WeatherDisplay:10.37,2017-11-24 17:11:00,
2017-11-24 12:16:00,53.0,39.9,30.02,NNW,344,2.1,3.5,61,0.00,CLR,FEW,0.00,WeatherDisplay:10.37,2017-11-24 17:16:00,
2017-11-24 12:21:00,53.5,39.9,30.02,NNE,17,2.1,3.5,60,0.00,CLR,FEW,0.00,WeatherDisplay:10.37,2017-11-24 17:21:00,
2017-11-24 12:26:00,54.0,40.0,30.01,NNW,330,1.0,3.5,59,0.00,CLR,FEW,0.00,WeatherDisplay:10.37,2017-11-24 17:26:00,
2017-11-24 12:31:00,54.4,39.5,30.01,West,276,0.7,2.3,57,0.00,CLR,FEW,0.00,WeatherDisplay:10.37,2017-11-24 17:31:00,
2017-11-24 12:32:00,54.4,39.0,30.01,West,276,1.7,3.5,56,0.00,CLR,FEW,0.00,WeatherDisplay:10.37,2017-11-24 17:32:00,
2017-11-24 12:37:00,54.5,38.7,30.00,South,182,3.1,3.5,55,0.00,CLR,FEW,0.00,WeatherDisplay:10.37,2017-11-24 17:37:00,
2017-11-24 12:42:00,54.4,38.6,30.00,West,271,1.4,3.5,55,0.00,CLR,FEW,0.00,WeatherDisplay:10.37,2017-11-24 17:42:00,
2017-11-24 12:47:00,54.6,38.3,30.00,WNW,297,2.1,5.8,54,0.00,CLR,FEW,0.00,WeatherDisplay:10.37,2017-11-24 17:47:00,
2017-11-24 12:52:00,55.3,38.9,29.99,West,269,2.2,4.0,54,0.00,CLR,FEW,0.00,WeatherDisplay:10.37,2017-11-24 17:52:00,
2017-11-24 12:57:00,55.7,38.3,29.99,West,279,3.0,3.0,52,0.00,CLR,FEW,0.00,WeatherDisplay:10.37,2017-11-24 17:57:00,
2017-11-24 13:02:00,56.2,38.3,29.99,WNW,288,2.0,2.3,51,0.00,CLR,FEW,0.00,WeatherDisplay:10.37,2017-11-24 18:02:00,
2017-11-24 13:08:00,56.8,36.8,29.99,WNW,286,1.0,2.3,47,0.00,CLR,FEW,0.00,WeatherDisplay:10.37,2017-11-24 18:08:00,
2017-11-24 13:13:00,57.6,38.6,29.98,NW,308,2.3,3.5,49,0.00,CLR,FEW,0.00,WeatherDisplay:10.37,2017-11-24 18:13:00,
2017-11-24 13:18:00,58.0,37.3,29.98,West,279,1.5,2.3,46,0.00,CLR,FEW,0.00,WeatherDisplay:10.37,2017-11-24 18:18:00,
2017-11-24 13:23:00,58.5,37.8,29.98,WNW,283,1.6,3.5,46,0.00,CLR,FEW,0.00,WeatherDisplay:10.37,2017-11-24 18:23:00,
2017-11-24 13:28:00,59.1,37.2,29.98,NW,306,1.9,3.5,44,0.00,CLR,FEW,0.00,WeatherDisplay:10.37,2017-11-24 18:28:00,
2017-11-24 13:33:00,59.1,36.0,29.97,WNW,300,1.7,3.5,42,0.00,CLR,FEW,0.00,WeatherDisplay:10.37,2017-11-24 18:33:00,
2017-11-24 13:38:00,59.1,35.4,29.97,South,176,2.2,3.5,41,0.00,CLR,FEW,0.00,WeatherDisplay:10.37,2017-11-24 18:38:00,
2017-11-24 13:43:00,59.1,34.1,29.97,SW,236,4.3,4.6,39,0.00,CLR,FEW,0.00,WeatherDisplay:10.37,2017-11-24 18:43:00,
2017-11-24 13:48:00,59.1,34.1,29.97,SW,236,2.0,3.5,39,0.00,CLR,FEW,0.00,WeatherDisplay:10.37,2017-11-24 18:48:00,
2017-11-24 13:53:00,59.0,33.4,29.97,SSE,154,2.3,3.5,38,0.00,CLR,FEW,0.00,WeatherDisplay:10.37,2017-11-24 18:53:00,
2017-11-24 13:58:00,59.1,32.8,29.97,WSW,252,1.8,3.5,37,0.00,CLR,FEW,0.00,WeatherDisplay:10.37,2017-11-24 18:58:00,
2017-11-24 14:03:00,59.5,29.6,29.97,SSE,164,1.1,2.3,32,0.00,CLR,FEW,0.00,WeatherDisplay:10.37,2017-11-24 19:03:00,
2017-11-24 14:08:00,60.0,30.8,29.96,NW,312,1.0,2.0,33,0.00,CLR,FEW,0.00,WeatherDisplay:10.37,2017-11-24 19:08:00,
2017-11-24 14:13:00,60.3,30.3,29.96,SE,140,1.8,3.5,32,0.00,CLR,FEW,0.00,WeatherDisplay:10.37,2017-11-24 19:13:00,
2017-11-24 14:18:00,60.2,29.4,29.96,SSW,196,0.9,3.5,31,0.00,CLR,FEW,0.00,WeatherDisplay:10.37,2017-11-24 19:18:00,
2017-11-24 14:19:00,60.1,29.3,29.96,SSW,197,0.7,3.0,31,0.00,CLR,FEW,0.00,WeatherDisplay:10.37,2017-11-24 19:19:00,
2017-11-24 14:24:00,60.3,30.3,29.96,SSW,198,1.5,3.5,32,0.00,CLR,FEW,0.00,WeatherDisplay:10.37,2017-11-24 19:24:00,
2017-11-24 14:29:00,60.7,31.4,29.96,West,281,1.4,2.3,33,0.00,CLR,FEW,0.00,WeatherDisplay:10.37,2017-11-24 19:29:00,
2017-11-24 14:34:00,61.2,31.1,29.95,West,281,1.4,3.5,32,0.00,CLR,FEW,0.00,WeatherDisplay:10.37,2017-11-24 19:34:00,
2017-11-24 14:39:00,61.5,31.3,29.95,SSE,150,0.7,2.3,32,0.00,CLR,FEW,0.00,WeatherDisplay:10.37,2017-11-24 19:39:00,
2017-11-24 14:40:00,61.6,31.4,29.95,SSE,150,0.6,2.3,32,0.00,CLR,FEW,0.00,WeatherDisplay:10.37,2017-11-24 19:40:00,
2017-11-24 14:45:00,61.7,31.5,29.95,ESE,111,2.1,3.5,32,0.00,CLR,FEW,0.00,WeatherDisplay:10.37,2017-11-24 19:45:00,
2017-11-24 14:50:00,61.4,32.0,29.95,SW,225,2.6,3.5,33,0.00,CLR,FEW,0.00,WeatherDisplay:10.37,2017-11-24 19:50:00,
2017-11-24 14:55:00,61.1,32.5,29.95,ESE,123,0.9,2.3,34,0.00,CLR,FEW,0.00,WeatherDisplay:10.37,2017-11-24 19:55:00,
2017-11-24 15:00:00,61.3,31.9,29.95,West,261,3.0,4.6,33,0.00,CLR,FEW,0.00,WeatherDisplay:10.37,2017-11-24 20:00:00,
2017-11-24 15:05:00,61.3,33.4,29.95,SSE,149,2.1,3.5,35,0.00,CLR,FEW,0.00,WeatherDisplay:10.37,2017-11-24 20:05:00,
2017-11-24 15:10:00,61.1,33.2,29.95,SSW,205,1.9,3.5,35,0.00,CLR,FEW,0.00,WeatherDisplay:10.37,2017-11-24 20:10:00,
2017-11-24 15:15:00,61.2,34.0,29.95,South,191,3.7,5.8,36,0.00,CLR,FEW,0.00,WeatherDisplay:10.37,2017-11-24 20:15:00,
2017-11-24 15:20:00,60.9,34.4,29.95,SSW,205,1.0,2.3,37,0.00,CLR,FEW,0.00,WeatherDisplay:10.37,2017-11-24 20:20:00,
2017-11-24 15:25:00,60.9,34.4,29.95,SE,139,3.0,3.5,37,0.00,CLR,FEW,0.00,WeatherDisplay:10.37,2017-11-24 20:25:00,
2017-11-24 15:30:00,61.0,34.5,29.95,South,171,2.0,5.0,37,0.00,CLR,FEW,0.00,WeatherDisplay:10.37,2017-11-24 20:30:00,
2017-11-24 15:35:00,60.7,32.9,29.95,ESE,113,1.7,3.5,35,0.00,CLR,FEW,0.00,WeatherDisplay:10.37,2017-11-24 20:35:00,
2017-11-24 15:40:00,60.7,32.9,29.95,WSW,245,3.0,3.5,35,0.00,CLR,FEW,0.00,WeatherDisplay:10.37,2017-11-24 20:40:00,
2017-11-24 15:45:00,60.7,32.1,29.95,South,171,1.8,3.5,34,0.00,CLR,FEW,0.00,WeatherDisplay:10.37,2017-11-24 20:45:00,
2017-11-24 15:50:00,60.9,31.6,29.94,SSE,163,3.1,4.6,33,0.00,CLR,FEW,0.00,WeatherDisplay:10.37,2017-11-24 20:50:00,
2017-11-24 15:55:00,61.0,32.4,29.94,West,268,0.8,1.2,34,0.00,CLR,FEW,0.00,WeatherDisplay:10.37,2017-11-24 20:55:00,
2017-11-24 16:00:00,60.9,31.6,29.94,WSW,242,3.2,5.8,33,0.00,CLR,FEW,0.00,WeatherDisplay:10.37,2017-11-24 21:00:00,
2017-11-24 16:05:00,60.9,32.3,29.94,SSW,211,2.4,3.5,34,0.00,CLR,FEW,0.00,WeatherDisplay:10.37,2017-11-24 21:05:00,
2017-11-24 16:10:00,60.9,33.0,29.94,South,175,1.1,2.3,35,0.00,CLR,FEW,0.00,WeatherDisplay:10.37,2017-11-24 21:10:00,
2017-11-24 16:15:00,60.8,32.2,29.94,South,169,1.4,3.5,34,0.00,CLR,FEW,0.00,WeatherDisplay:10.37,2017-11-24 21:15:00,
2017-11-24 16:20:00,60.8,33.7,29.94,South,169,1.2,1.2,36,0.00,CLR,FEW,0.00,WeatherDisplay:10.37,2017-11-24 21:20:00,
2017-11-24 16:25:00,61.0,33.8,29.94,SW,214,1.2,4.6,36,0.00,CLR,FEW,0.00,WeatherDisplay:10.37,2017-11-24 21:25:00,
2017-11-24 16:30:00,61.1,33.2,29.94,SSW,211,3.4,5.8,35,0.00,CLR,FEW,0.00,WeatherDisplay:10.37,2017-11-24 21:30:00,
2017-11-24 16:35:00,61.0,33.8,29.94,SSW,211,0.9,2.3,36,0.00,CLR,FEW,0.00,WeatherDisplay:10.37,2017-11-24 21:35:00,
2017-11-24 16:40:00,60.9,34.4,29.94,SSW,192,0.6,1.2,37,0.00,CLR,FEW,0.00,WeatherDisplay:10.37,2017-11-24 21:40:00,
2017-11-24 16:45:00,60.5,34.1,29.94,South,181,1.4,3.5,37,0.00,CLR,FEW,0.00,WeatherDisplay:10.37,2017-11-24 21:45:00,
2017-11-24 16:50:00,60.1,33.7,29.94,South,171,3.7,4.6,37,0.00,CLR,FEW,0.00,WeatherDisplay:10.37,2017-11-24 21:50:00,
2017-11-24 16:55:00,59.6,33.9,29.94,SSW,192,2.3,4.6,38,0.00,CLR,FEW,0.00,WeatherDisplay:10.37,2017-11-24 21:55:00,
2017-11-24 17:00:00,59.2,34.9,29.95,SSE,158,2.8,6.9,40,0.00,CLR,FEW,0.00,WeatherDisplay:10.37,2017-11-24 22:00:00,
2017-11-24 17:05:00,58.6,35.6,29.94,South,181,2.4,4.6,42,0.00,CLR,FEW,0.00,WeatherDisplay:10.37,2017-11-24 22:05:00,
2017-11-24 17:10:00,57.9,35.5,29.95,SSW,196,2.4,4.0,43,0.00,CLR,FEW,0.00,WeatherDisplay:10.37,2017-11-24 22:10:00,
2017-11-24 17:15:00,57.1,35.9,29.95,SSW,197,1.5,2.3,45,0.00,CLR,FEW,0.00,WeatherDisplay:10.37,2017-11-24 22:15:00,
2017-11-24 17:20:00,56.4,35.9,29.95,SSW,197,0.7,2.3,46,0.00,CLR,FEW,0.00,WeatherDisplay:10.37,2017-11-24 22:20:00,
2017-11-24 17:25:00,55.8,35.9,29.95,SW,224,0.7,1.2,47,0.00,CLR,FEW,0.00,WeatherDisplay:10.37,2017-11-24 22:25:00,
2017-11-24 17:30:00,55.1,36.3,29.95,SW,224,0.9,1.2,49,0.00,CLR,FEW,0.00,WeatherDisplay:10.37,2017-11-24 22:30:00,
2017-11-24 17:35:00,54.4,36.6,29.95,SW,224,0.6,1.2,51,0.00,CLR,FEW,0.00,WeatherDisplay:10.37,2017-11-24 22:35:00,
2017-11-24 17:40:00,53.6,36.4,29.95,SW,224,1.1,2.3,52,0.00,CLR,FEW,0.00,WeatherDisplay:10.37,2017-11-24 22:40:00,
2017-11-24 17:45:00,53.2,36.0,29.95,SW,224,1.5,2.3,52,0.00,CLR,FEW,0.00,WeatherDisplay:10.37,2017-11-24 22:45:00,
2017-11-24 17:50:00,52.7,36.5,29.95,SW,224,1.0,2.3,54,0.00,CLR,FEW,0.00,WeatherDisplay:10.37,2017-11-24 22:50:00,
2017-11-24 17:55:00,52.3,36.6,29.96,SW,224,0.7,2.0,55,0.00,CLR,FEW,0.00,WeatherDisplay:10.37,2017-11-24 22:55:00,
2017-11-24 18:00:00,51.9,36.7,29.96,SW,224,1.0,2.3,56,0.00,CLR,FEW,0.00,WeatherDisplay:10.37,2017-11-24 23:00:00,
2017-11-24 18:05:00,51.6,36.4,29.96,SE,137,1.4,3.5,56,0.00,CLR,FEW,0.00,WeatherDisplay:10.37,2017-11-24 23:05:00,
2017-11-24 18:10:00,51.4,36.7,29.96,SE,138,0.9,2.3,57,0.00,CLR,FEW,0.00,WeatherDisplay:10.37,2017-11-24 23:10:00,
2017-11-24 18:15:00,51.0,36.7,29.97,SE,138,1.1,2.3,58,0.00,CLR,FEW,0.00,WeatherDisplay:10.37,2017-11-24 23:15:00,
2017-11-24 18:20:00,50.6,36.8,29.97,SSE,165,1.3,3.5,59,0.00,CLR,FEW,0.00,WeatherDisplay:10.37,2017-11-24 23:20:00,
2017-11-24 18:25:00,50.6,36.8,29.97,SW,229,1.9,3.5,59,0.00,CLR,FEW,0.00,WeatherDisplay:10.37,2017-11-24 23:25:00,
2017-11-24 18:31:00,50.5,36.7,29.97,South,184,1.4,2.3,59,0.00,CLR,FEW,0.00,WeatherDisplay:10.37,2017-11-24 23:31:00,
2017-11-24 18:36:00,50.1,36.7,29.97,South,184,0.9,3.0,60,0.00,CLR,FEW,0.00,WeatherDisplay:10.37,2017-11-24 23:36:00,
2017-11-24 18:41:00,49.7,36.8,29.97,South,184,1.8,3.5,61,0.00,CLR,FEW,0.00,WeatherDisplay:10.37,2017-11-24 23:41:00,
2017-11-24 18:46:00,49.4,36.5,29.97,ESE,102,1.3,3.5,61,0.00,CLR,FEW,0.00,WeatherDisplay:10.37,2017-11-24 23:46:00,
2017-11-24 18:51:00,49.1,36.6,29.97,ESE,102,1.5,3.5,62,0.00,CLR,FEW,0.00,WeatherDisplay:10.37,2017-11-24 23:51:00,
2017-11-24 18:56:00,48.8,36.8,29.97,ESE,102,1.3,2.3,63,0.00,CLR,FEW,0.00,WeatherDisplay:10.37,2017-11-24 23:56:00,
2017-11-24 19:01:00,48.6,36.6,29.97,ESE,102,0.7,2.3,63,0.00,CLR,FEW,0.00,WeatherDisplay:10.37,2017-11-25 00:01:00,
2017-11-24 19:06:00,48.4,36.8,29.97,ESE,102,1.0,2.3,64,0.00,CLR,FEW,0.00,WeatherDisplay:10.37,2017-11-25 00:06:00,
2017-11-24 19:11:00,48.2,36.6,29.98,ESE,102,1.1,2.3,64,0.00,CLR,FEW,0.00,WeatherDisplay:10.37,2017-11-25 00:11:00,
2017-11-24 19:16:00,48.0,36.8,29.98,ESE,102,2.3,3.5,65,0.00,CLR,FEW,0.00,WeatherDisplay:10.37,2017-11-25 00:16:00,
2017-11-24 19:21:00,47.9,36.3,29.98,ESE,102,1.1,2.3,64,0.00,CLR,FEW,0.00,WeatherDisplay:10.37,2017-11-25 00:21:00,
2017-11-24 19:26:00,48.0,36.4,29.98,ESE,102,1.3,2.3,64,0.00,CLR,FEW,0.00,WeatherDisplay:10.37,2017-11-25 00:26:00,
2017-11-24 19:31:00,48.0,36.4,29.98,WSW,253,2.2,3.5,64,0.00,CLR,FEW,0.00,WeatherDisplay:10.37,2017-11-25 00:31:00,
2017-11-24 19:36:00,48.0,36.4,29.99,SE,144,2.1,2.3,64,0.00,CLR,FEW,0.00,WeatherDisplay:10.37,2017-11-25 00:36:00,
2017-11-24 19:41:00,47.9,36.3,29.98,SE,144,1.0,3.5,64,0.00,CLR,FEW,0.00,WeatherDisplay:10.37,2017-11-25 00:41:00,
2017-11-24 19:46:00,47.8,36.6,29.99,West,279,2.1,3.5,65,0.00,CLR,FEW,0.00,WeatherDisplay:10.37,2017-11-25 00:46:00,
2017-11-24 19:51:00,47.7,36.1,29.98,West,279,1.3,2.3,64,0.00,CLR,FEW,0.00,WeatherDisplay:10.37,2017-11-25 00:51:00,
2017-11-24 19:56:00,47.7,36.5,29.98,SSE,166,2.2,3.5,65,0.00,CLR,FEW,0.00,WeatherDisplay:10.37,2017-11-25 00:56:00,
2017-11-24 20:01:00,47.8,36.6,29.98,SSW,204,1.0,3.5,65,0.00,CLR,FEW,0.00,WeatherDisplay:10.37,2017-11-25 01:01:00,
2017-11-24 20:06:00,47.5,36.3,29.98,ESE,121,0.7,2.3,65,0.00,CLR,FEW,0.00,WeatherDisplay:10.37,2017-11-25 01:06:00,
2017-11-24 20:11:00,47.2,36.0,29.98,SE,124,1.4,2.3,65,0.00,CLR,FEW,0.00,WeatherDisplay:10.37,2017-11-25 01:11:00,
2017-11-24 20:16:00,47.1,36.3,29.99,WSW,248,1.9,3.5,66,0.00,CLR,FEW,0.00,WeatherDisplay:10.37,2017-11-25 01:16:00,
2017-11-24 20:21:00,46.9,36.1,29.99,West,265,1.5,3.5,66,0.00,CLR,FEW,0.00,WeatherDisplay:10.37,2017-11-25 01:21:00,
2017-11-24 20:26:00,46.9,36.1,29.99,ESE,103,1.8,3.5,66,0.00,CLR,FEW,0.00,WeatherDisplay:10.37,2017-11-25 01:26:00,
2017-11-24 20:31:00,46.8,36.0,29.99,SE,144,1.1,3.5,66,0.00,CLR,FEW,0.00,WeatherDisplay:10.37,2017-11-25 01:31:00,
2017-11-24 20:36:00,46.8,36.0,29.99,South,170,1.3,2.3,66,0.00,CLR,FEW,0.00,WeatherDisplay:10.37,2017-11-25 01:36:00,
2017-11-24 20:41:00,46.7,35.9,29.99,South,170,1.1,4.0,66,0.00,CLR,FEW,0.00,WeatherDisplay:10.37,2017-11-25 01:41:00,
2017-11-24 20:46:00,46.6,36.2,29.99,South,170,1.8,3.5,67,0.00,CLR,FEW,0.00,WeatherDisplay:10.37,2017-11-25 01:46:00,
2017-11-24 20:51:00,46.4,36.0,29.99,South,170,1.5,2.3,67,0.00,CLR,FEW,0.00,WeatherDisplay:10.37,2017-11-25 01:51:00,
2017-11-24 20:56:00,46.2,36.2,29.99,South,170,1.5,4.0,68,0.00,CLR,FEW,0.00,WeatherDisplay:10.37,2017-11-25 01:56:00,
2017-11-24 21:01:00,46.1,36.1,29.98,South,171,1.1,2.3,68,0.00,CLR,FEW,0.00,WeatherDisplay:10.37,2017-11-25 02:01:00,
2017-11-24 21:06:00,46.0,36.0,29.99,South,171,1.5,2.3,68,0.00,CLR,FEW,0.00,WeatherDisplay:10.37,2017-11-25 02:06:00,
2017-11-24 21:11:00,46.0,36.0,29.99,South,171,1.6,2.3,68,0.00,CLR,FEW,0.00,WeatherDisplay:10.37,2017-11-25 02:11:00,
2017-11-24 21:16:00,46.1,36.1,29.99,South,171,1.9,2.3,68,0.00,CLR,FEW,0.00,WeatherDisplay:10.37,2017-11-25 02:16:00,
2017-11-24 21:21:00,46.3,36.3,29.99,South,171,1.0,2.3,68,0.00,CLR,FEW,0.00,WeatherDisplay:10.37,2017-11-25 02:21:00,
2017-11-24 21:26:00,46.3,36.3,29.99,South,171,0.5,2.3,68,0.00,CLR,FEW,0.00,WeatherDisplay:10.37,2017-11-25 02:26:00,
2017-11-24 21:31:00,46.3,36.3,29.99,South,171,1.5,2.3,68,0.00,CLR,FEW,0.00,WeatherDisplay:10.37,2017-11-25 02:31:00,
2017-11-24 21:36:00,46.1,36.1,29.99,South,171,1.3,2.3,68,0.00,CLR,FEW,0.00,WeatherDisplay:10.37,2017-11-25 02:36:00,
2017-11-24 21:41:00,46.0,36.0,29.99,South,171,0.5,2.3,68,0.00,CLR,FEW,0.00,WeatherDisplay:10.37,2017-11-25 02:41:00,
2017-11-24 21:46:00,45.9,36.3,29.99,South,171,1.3,3.5,69,0.00,CLR,FEW,0.00,WeatherDisplay:10.37,2017-11-25 02:46:00,
2017-11-24 21:51:00,45.7,36.5,29.99,South,171,1.4,2.3,70,0.00,CLR,FEW,0.00,WeatherDisplay:10.37,2017-11-25 02:51:00,
2017-11-24 21:56:00,45.7,36.5,29.99,South,171,1.9,3.5,70,0.00,CLR,FEW,0.00,WeatherDisplay:10.37,2017-11-25 02:56:00,
2017-11-24 22:02:00,45.6,36.4,29.99,South,171,1.5,3.5,70,0.00,CLR,FEW,0.00,WeatherDisplay:10.37,2017-11-25 03:02:00,
2017-11-24 22:07:00,45.5,36.6,29.99,South,171,1.1,2.3,71,0.00,CLR,FEW,0.00,WeatherDisplay:10.37,2017-11-25 03:07:00,
2017-11-24 22:12:00,45.4,36.5,29.99,South,171,1.1,2.0,71,0.00,CLR,FEW,0.00,WeatherDisplay:10.37,2017-11-25 03:12:00,
2017-11-24 22:17:00,45.4,36.5,29.99,South,171,1.4,2.3,71,0.00,CLR,FEW,0.00,WeatherDisplay:10.37,2017-11-25 03:17:00,
2017-11-24 22:21:00,45.4,36.5,29.99,South,171,1.4,2.3,71,0.00,CLR,FEW,0.00,WeatherDisplay:10.37,2017-11-25 03:21:00,
2017-11-24 22:24:00,45.4,36.5,29.99,South,171,1.2,2.3,71,0.00,CLR,FEW,0.00,WeatherDisplay:10.37,2017-11-25 03:24:00,
2017-11-24 22:25:00,45.4,36.5,29.99,South,171,1.7,2.3,71,0.00,CLR,FEW,0.00,WeatherDisplay:10.37,2017-11-25 03:25:00,
2017-11-24 22:27:00,45.4,36.5,29.99,South,171,1.6,2.3,71,0.00,CLR,FEW,0.00,WeatherDisplay:10.37,2017-11-25 03:27:00,
2017-11-24 22:32:00,45.4,36.5,29.99,South,171,1.5,2.3,71,0.00,CLR,FEW,0.00,WeatherDisplay:10.37,2017-11-25 03:32:00,
2017-11-24 22:37:00,45.5,36.6,29.99,South,171,1.9,2.3,71,0.00,CLR,FEW,0.00,WeatherDisplay:10.37,2017-11-25 03:37:00,
2017-11-24 22:42:00,45.6,36.7,29.99,South,171,1.5,2.3,71,0.00,CLR,FEW,0.00,WeatherDisplay:10.37,2017-11-25 03:42:00,
2017-11-24 22:47:00,45.8,36.6,29.99,South,171,1.7,2.3,70,0.00,CLR,FEW,0.00,WeatherDisplay:10.37,2017-11-25 03:47:00,
2017-11-24 22:52:00,45.9,36.7,29.99,South,171,1.2,2.3,70,0.00,CLR,FEW,0.00,WeatherDisplay:10.37,2017-11-25 03:52:00,
2017-11-24 23:02:00,45.9,36.7,29.99,South,171,1.4,2.3,70,0.00,CLR,FEW,0.00,WeatherDisplay:10.37,2017-11-25 04:02:00,
2017-11-24 23:07:00,45.7,36.8,29.99,South,171,1.5,2.3,71,0.00,CLR,FEW,0.00,WeatherDisplay:10.37,2017-11-25 04:07:00,
2017-11-24 23:12:00,45.6,36.7,29.99,South,171,1.1,2.0,71,0.00,CLR,FEW,0.00,WeatherDisplay:10.37,2017-11-25 04:12:00,
2017-11-24 23:17:00,45.5,36.6,29.99,South,171,1.2,2.3,71,0.00,CLR,FEW,0.00,WeatherDisplay:10.37,2017-11-25 04:17:00,
2017-11-24 23:22:00,45.5,36.6,29.99,South,171,0.6,1.2,71,0.00,CLR,FEW,0.00,WeatherDisplay:10.37,2017-11-25 04:22:00,
2017-11-24 23:27:00,45.3,36.8,29.99,South,171,0.0,0.0,72,0.00,CLR,FEW,0.00,WeatherDisplay:10.37,2017-11-25 04:27:00,
2017-11-24 23:32:00,45.0,36.5,29.99,South,171,1.3,2.3,72,0.00,CLR,FEW,0.00,WeatherDisplay:10.37,2017-11-25 04:32:00,
2017-11-24 23:37:00,44.6,36.5,29.99,South,171,0.7,1.2,73,0.00,CLR,FEW,0.00,WeatherDisplay:10.37,2017-11-25 04:37:00,